TimeCST,TemperatureF,Dew PointF,Humidity,Sea Level PressureIn,VisibilityMPH,Wind Direction,Wind SpeedMPH,Gust SpeedMPH,PrecipitationIn,Events,Conditions,WindDirDegrees,DateUTC
12:14 AM,17.6,12.2,79,30.38,10.0,SSE,3.5,-,N/A,,Clear,150,2012-12-05 06:14:00
12:34 AM,15.8,10.4,79,30.37,10.0,SSE,5.8,-,N/A,,Clear,160,2012-12-05 06:34:00
12:54 AM,15.8,12.2,86,30.36,10.0,SSE,8.1,-,N/A,,Clear,150,2012-12-05 06:54:00
1:14 AM,17.6,12.2,79,30.36,10.0,SE,8.1,-,N/A,,Clear,140,2012-12-05 07:14:00
1:54 AM,17.6,12.2,79,30.36,10.0,South,5.8,-,N/A,,Clear,170,2012-12-05 07:54:00
2:14 AM,17.6,12.2,79,30.35,10.0,SSE,6.9,-,N/A,,Clear,160,2012-12-05 08:14:00
2:34 AM,17.6,12.2,79,30.35,10.0,SSE,6.9,-,N/A,,Clear,150,2012-12-05 08:34:00
2:54 AM,17.6,12.2,79,30.34,10.0,SSE,8.1,-,N/A,,Clear,150,2012-12-05 08:54:00
3:14 AM,17.6,12.2,79,30.34,10.0,SSE,9.2,-,N/A,,Clear,160,2012-12-05 09:14:00
3:34 AM,17.6,12.2,79,30.34,10.0,SSE,9.2,-,N/A,,Clear,160,2012-12-05 09:34:00
3:54 AM,17.6,12.2,79,30.32,10.0,South,10.4,-,N/A,,Clear,170,2012-12-05 09:54:00
4:14 AM,17.6,12.2,79,30.32,10.0,SSE,10.4,-,N/A,,Clear,160,2012-12-05 10:14:00
4:34 AM,17.6,12.2,79,30.32,10.0,South,9.2,-,N/A,,Clear,170,2012-12-05 10:34:00
4:54 AM,17.6,12.2,79,30.30,10.0,South,12.7,-,N/A,,Clear,170,2012-12-05 10:54:00
5:14 AM,17.6,12.2,79,30.29,10.0,SSE,13.8,-,N/A,,Clear,160,2012-12-05 11:14:00
5:34 AM,17.6,12.2,79,30.29,10.0,South,13.8,-,N/A,,Clear,170,2012-12-05 11:34:00
5:54 AM,17.6,12.2,79,30.27,10.0,South,13.8,-,N/A,,Clear,170,2012-12-05 11:54:00
6:14 AM,17.6,12.2,79,30.26,10.0,South,15.0,-,N/A,,Clear,170,2012-12-05 12:14:00
6:34 AM,17.6,12.2,79,30.25,10.0,South,13.8,-,N/A,,Clear,170,2012-12-05 12:34:00
6:54 AM,17.6,12.2,79,30.25,10.0,South,12.7,-,N/A,,Clear,170,2012-12-05 12:54:00
8:33 AM,21.2,14.0,74,30.22,10.0,South,19.6,-,N/A,,Clear,170,2012-12-05 14:33:00
8:54 AM,23.0,15.8,74,30.20,10.0,South,18.4,-,N/A,,Clear,170,2012-12-05 14:54:00
9:14 AM,24.8,15.8,69,30.19,10.0,South,21.9,26.5,N/A,,Clear,170,2012-12-05 15:14:00
9:34 AM,24.8,15.8,69,30.17,10.0,South,19.6,-,N/A,,Clear,170,2012-12-05 15:34:00
9:54 AM,24.8,15.8,69,30.15,10.0,South,21.9,29.9,N/A,,Clear,180,2012-12-05 15:54:00
10:14 AM,26.6,15.8,64,30.13,10.0,South,21.9,28.8,N/A,,Clear,170,2012-12-05 16:14:00
10:34 AM,26.6,15.8,64,30.12,10.0,South,20.7,29.9,N/A,,Clear,180,2012-12-05 16:34:00
10:54 AM,28.4,15.8,59,30.10,10.0,South,19.6,28.8,N/A,,Clear,170,2012-12-05 16:54:00
11:14 AM,28.4,17.6,64,30.08,10.0,South,21.9,26.5,N/A,,Clear,180,2012-12-05 17:14:00
11:34 AM,30.2,17.6,60,30.06,10.0,South,18.4,25.3,N/A,,Clear,180,2012-12-05 17:34:00
11:54 AM,32.0,17.6,55,30.04,10.0,South,17.3,27.6,N/A,,Clear,180,2012-12-05 17:54:00
12:14 PM,33.8,19.4,56,30.02,10.0,South,19.6,28.8,N/A,,Clear,180,2012-12-05 18:14:00
12:34 PM,33.8,19.4,56,30.00,10.0,South,23.0,28.8,N/A,,Clear,180,2012-12-05 18:34:00
12:54 PM,35.6,21.2,56,29.98,10.0,South,19.6,26.5,N/A,,Clear,180,2012-12-05 18:54:00
1:14 PM,37.4,21.2,52,29.97,10.0,South,18.4,25.3,N/A,,Clear,180,2012-12-05 19:14:00
1:34 PM,41.0,23.0,49,29.95,10.0,South,17.3,32.2,N/A,,Clear,190,2012-12-05 19:34:00
1:54 PM,42.8,23.0,46,29.95,10.0,South,15.0,25.3,N/A,,Clear,180,2012-12-05 19:54:00
2:14 PM,42.8,23.0,46,29.93,10.0,South,18.4,24.2,N/A,,Clear,190,2012-12-05 20:14:00
2:34 PM,41.0,23.0,49,29.92,10.0,South,15.0,20.7,N/A,,Clear,190,2012-12-05 20:34:00
2:54 PM,41.0,24.8,53,29.91,10.0,South,16.1,19.6,N/A,,Clear,190,2012-12-05 20:54:00
3:14 PM,42.8,24.8,49,29.89,10.0,South,15.0,21.9,N/A,,Clear,190,2012-12-05 21:14:00
3:34 PM,42.8,24.8,49,29.89,10.0,South,11.5,24.2,N/A,,Clear,190,2012-12-05 21:34:00
3:54 PM,42.8,24.8,49,29.88,10.0,South,12.7,19.6,N/A,,Clear,180,2012-12-05 21:54:00
4:14 PM,41.0,24.8,53,29.87,10.0,South,15.0,19.6,N/A,,Clear,180,2012-12-05 22:14:00
4:34 PM,41.0,24.8,53,29.86,10.0,South,13.8,20.7,N/A,,Clear,180,2012-12-05 22:34:00
4:54 PM,39.2,24.8,56,29.86,10.0,South,13.8,-,N/A,,Clear,180,2012-12-05 22:54:00
5:15 PM,41.0,24.8,53,29.85,10.0,South,15.0,19.6,N/A,,Scattered Clouds,180,2012-12-05 23:15:00
5:34 PM,41.0,24.8,53,29.83,10.0,South,15.0,20.7,N/A,,Scattered Clouds,180,2012-12-05 23:34:00
5:54 PM,41.0,24.8,53,29.83,10.0,South,13.8,20.7,N/A,,Mostly Cloudy,180,2012-12-05 23:54:00
6:15 PM,42.8,26.6,53,29.82,10.0,South,13.8,19.6,N/A,,Overcast,180,2012-12-06 00:15:00
6:34 PM,42.8,26.6,53,29.81,10.0,South,13.8,20.7,N/A,,Overcast,190,2012-12-06 00:34:00
6:54 PM,42.8,26.6,53,29.81,10.0,South,16.1,24.2,N/A,,Overcast,190,2012-12-06 00:54:00
7:15 PM,42.8,26.6,53,29.80,10.0,South,13.8,21.9,N/A,,Mostly Cloudy,190,2012-12-06 01:15:00
7:34 PM,42.8,26.6,53,29.79,10.0,South,16.1,24.2,N/A,,Scattered Clouds,190,2012-12-06 01:34:00
7:54 PM,42.8,26.6,53,29.79,10.0,South,13.8,19.6,N/A,,Clear,190,2012-12-06 01:54:00
8:15 PM,42.8,28.4,57,29.79,10.0,South,11.5,20.7,N/A,,Clear,180,2012-12-06 02:15:00
8:34 PM,42.8,28.4,57,29.78,10.0,South,15.0,21.9,N/A,,Clear,190,2012-12-06 02:34:00
8:54 PM,42.8,28.4,57,29.77,10.0,South,16.1,21.9,N/A,,Clear,190,2012-12-06 02:54:00
9:14 PM,44.6,28.4,53,29.76,10.0,South,16.1,23.0,N/A,,Clear,190,2012-12-06 03:14:00
9:34 PM,44.6,28.4,53,29.74,10.0,SSW,16.1,21.9,N/A,,Clear,200,2012-12-06 03:34:00
9:54 PM,44.6,28.4,53,29.73,10.0,SSW,17.3,25.3,N/A,,Clear,200,2012-12-06 03:54:00
10:14 PM,44.6,28.4,53,29.72,10.0,SSW,13.8,21.9,N/A,,Clear,200,2012-12-06 04:14:00
10:34 PM,44.6,28.4,53,29.72,10.0,SSW,13.8,24.2,N/A,,Clear,200,2012-12-06 04:34:00
10:54 PM,44.6,28.4,53,29.71,10.0,SSW,16.1,21.9,N/A,,Clear,200,2012-12-06 04:54:00
11:14 PM,44.6,28.4,53,29.71,10.0,SSW,15.0,20.7,N/A,,Clear,200,2012-12-06 05:14:00
11:34 PM,44.6,28.4,53,29.71,10.0,SSW,11.5,-,N/A,,Clear,200,2012-12-06 05:34:00
11:54 PM,44.6,28.4,53,29.72,10.0,SSW,9.2,-,N/A,,Clear,210,2012-12-06 05:54:00